Location: Fenile
(46.0500°N, 9.5500°E)
Time: 14:41:33
(UTC+00:00)

Gbstr 26 Del rocket - Pass Details

Date: 03 March 2021
Orbit: 492 x 1264 km, 51.8° (Epoch: 15 April)

Event Time Altitude Azimuth Distance (km) Brightness Sun altitude
Rises 19:54:40 0° 292° (WNW) 2,945 7.8 -28.7°
Reaches altitude 10° 19:56:51 10° 297° (WNW) 2,132 6.7 -29.0°
Enters shadow 20:01:05 50° 350° (N) 989 4.1 -29.7°
